Theta_e
312 312 311 310 309 309 309 310 310 308 309 308 308 307 307 306 307 308 307 309 310 311 312 314 314 314 315 316 317 318 318 317 313 315 316 316 316 317 318 317 317 318 318
311 311 310 310 310 310 311 309 309 310 306 307 307 306 306 307 307 307 308 309 310 311 312 312 312 315 316 317 317 318 318 317 316 313 315 316 316 316 317 317 317 318 317
312 311 310 310 310 312 310 308 307 307 307 306 307 307 307 307 308 307 308 308 311 311 311 314 314 314 316 316 317 318 317 317 317 316 316 316 316 317 317 318 318 318 318
311 311 311 311 312 310 309 307 307 305 306 308 308 308 307 307 307 308 309 310 311 312 314 313 316 317 317 317 317 317 317 318 317 316 316 317 317 317 317 317 317 317 317
311 311 311 311 311 309 307 307 306 305 307 308 309 308 309 310 309 310 310 309 309 310 313 316 317 317 318 318 318 318 318 318 317 317 316 316 316 316 317 316 317 317 317
312 312 313 312 310 309 308 308 307 306 307 308 309 309 310 309 311 310 308 308 309 310 313 317 318 318 317 316 316 316 315 314 313 312 312 313 314 316 317 317 317 317 317
312 313 313 311 310 309 309 309 307 307 307 308 310 310 310 310 310 309 308 309 309 312 315 317 316 315 314 315 314 313 314 315 316 316 315 316 317 318 317 317 317 316 316
313 313 312 311 311 309 309 308 307 307 308 308 309 309 310 310 310 310 310 311 315 316 317 317 317 316 316 313 313 317 318 317 317 317 316 318 318 318 317 318 317 315 317
314 314 313 312 312 310 310 309 308 308 309 308 309 310 309 309 310 311 313 315 317 317 317 317 315 316 312 313 316 317 316 316 317 316 317 317 317 317 317 317 315 317 318
314 314 314 312 312 312 311 310 309 308 309 309 310 308 306 308 311 313 315 315 317 315 313 312 312 312 315 316 318 316 315 316 316 318 317 317 317 317 317 316 315 317 317
314 314 314 312 312 312 312 312 310 309 310 309 310 307 306 309 313 314 315 314 316 312 311 312 312 313 315 314 316 315 316 316 316 315 316 316 316 316 317 317 316 317 316
314 315 314 312 312 312 312 313 311 309 309 309 308 308 307 312 312 313 315 314 316 316 314 312 313 312 312 314 317 317 316 316 315 315 315 316 315 316 316 317 317 316 316
315 315 315 313 312 311 311 312 311 309 309 308 307 308 307 313 312 313 313 313 314 317 316 316 313 312 312 313 313 316 317 318 317 316 317 317 317 316 316 316 315 315 315
315 314 314 314 313 312 312 311 310 310 309 309 307 308 306 312 313 313 313 314 315 316 316 316 315 312 311 312 314 314 316 318 317 317 317 317 315 315 316 316 314 314 314
314 314 314 314 313 312 313 312 312 313 310 310 308 308 306 310 313 313 313 312 313 313 313 311 311 312 312 314 315 315 316 316 317 318 317 317 318 314 315 315 314 315 314
315 314 313 314 313 313 313 313 313 313 310 309 309 308 308 308 312 313 313 312 312 313 313 312 311 312 313 314 315 315 315 316 317 318 318 317 318 316 314 314 314 314 315
315 313 313 313 314 313 313 313 312 313 313 311 309 308 308 308 309 312 313 313 312 311 312 314 315 315 315 315 314 315 315 316 316 316 318 318 317 315 313 313 315 318 317
315 314 313 313 313 313 313 313 313 312 312 312 309 309 308 308 307 308 312 312 312 312 311 312 314 313 315 314 314 315 315 315 316 316 317 318 318 318 317 316 316 318 318
315 313 313 313 313 313 313 313 313 312 312 312 312 310 311 310 308 306 305 310 312 313 312 311 312 313 314 313 314 315 315 315 315 316 317 317 318 318 318 318 318 319 318
306 310 313 315 312 312 312 312 312 311 311 311 311 311 312 310 306 306 305 305 309 312 313 313 312 312 312 312 312 314 314 315 315 315 315 314 314 317 318 318 318 316 317
299 304 304 309 314 315 313 311 311 311 312 311 311 311 312 312 308 306 307 306 306 308 312 313 313 313 315 315 313 314 314 314 315 315 316 315 313 312 317 317 316 316 316
295 298 301 303 304 305 311 314 315 314 313 312 312 311 311 312 309 307 307 308 309 308 311 312 313 313 314 314 315 314 315 315 314 315 316 314 312 311 313 315 315 315 316
294 295 296 297 299 301 302 303 305 311 314 315 314 313 312 310 310 310 309 308 309 310 310 312 313 313 314 315 315 316 316 315 314 314 315 316 316 315 313 313 313 315 315
292 292 293 294 295 295 296 298 302 302 302 303 315 315 314 311 309 310 311 311 309 310 310 309 308 310 313 313 314 317 316 315 314 314 314 316 316 316 317 315 313 314 314
289 288 287 289 291 293 294 295 295 296 301 301 302 306 315 314 311 310 310 311 309 310 310 308 307 307 311 315 316 316 316 315 315 315 315 315 315 315 316 316 316 316 315
287 287 287 286 287 289 291 292 295 294 295 298 302 303 305 314 313 310 309 309 308 308 308 308 308 307 310 314 315 315 316 316 316 315 315 315 316 315 315 316 315 316 315
Wind_Speed
10 6 4 5 9 11 14 13 16 22 19 25 24 24 25 27 24 21 19 21 16 14 16 17 20 23 22 20 18 18 22 20 7 10 16 17 14 12 10 10 10 14 16
7 3 7 8 11 13 10 13 18 18 20 20 22 22 22 23 22 19 16 18 17 17 15 21 24 21 19 19 18 18 19 19 19 12 21 18 16 14 15 17 17 17 18
3 5 7 11 13 8 8 14 15 16 20 21 20 20 20 21 19 14 13 18 15 16 21 19 21 20 20 18 16 17 20 19 19 19 18 18 16 13 13 16 19 20 20
5 8 12 12 8 4 9 11 14 19 23 27 23 18 18 19 16 15 15 16 17 18 17 18 19 17 16 14 14 17 16 18 19 19 18 18 14 10 11 14 16 17 19
7 12 14 12 4 5 8 11 17 19 23 26 24 16 17 19 13 12 14 16 16 16 13 14 13 10 9 8 8 12 12 14 11 10 11 9 13 14 14 13 10 9 5
9 14 12 9 4 7 7 13 16 18 23 24 22 19 12 15 13 15 17 18 16 16 14 10 6 6 6 6 6 5 5 7 10 10 12 10 17 15 13 13 10 7 2
11 12 6 7 3 7 9 13 15 19 22 22 19 16 14 12 15 14 18 16 16 13 10 2 5 7 6 4 0 4 8 11 10 8 10 10 10 14 14 15 12 11 5
12 8 11 7 3 6 8 12 13 17 19 17 16 15 16 15 17 17 16 14 9 8 4 7 7 4 4 1 3 4 2 2 6 7 10 8 9 7 9 11 15 11 12
13 12 13 9 6 6 9 12 14 15 17 15 15 15 16 17 17 14 11 8 8 3 5 7 4 5 1 3 1 8 7 7 6 3 3 3 2 4 9 15 18 18 8
14 15 12 11 9 8 11 13 14 16 18 15 14 12 15 15 12 9 7 7 9 12 11 5 3 5 5 5 7 9 10 8 7 9 11 11 9 10 12 11 19 16 16
15 16 12 13 12 12 12 16 15 15 16 13 12 13 13 9 7 3 3 4 6 6 8 7 6 4 5 9 12 11 9 7 8 8 10 8 8 8 5 10 14 19 15
17 16 14 13 13 13 12 17 17 14 14 11 9 13 11 3 4 2 1 3 5 6 4 3 5 4 5 7 6 5 5 5 3 2 1 3 6 7 8 9 10 12 8
20 19 17 16 13 12 14 16 18 15 14 13 7 9 10 6 4 1 0 1 5 6 6 1 4 0 2 2 2 2 4 3 4 2 5 8 8 8 11 14 9 7 12
21 21 19 18 17 13 14 17 20 20 18 15 10 6 6 7 6 4 2 1 7 7 6 4 4 5 5 4 3 1 2 5 4 1 7 11 11 15 18 15 14 16 16
23 22 22 21 20 18 16 18 19 20 19 19 14 9 7 8 11 8 6 4 4 3 5 5 6 6 6 5 3 3 5 3 4 6 8 11 9 13 16 11 17 14 14
26 25 25 24 24 22 20 20 20 18 18 18 17 14 10 9 12 12 11 8 7 5 6 7 7 6 7 8 11 9 4 6 7 10 9 8 10 13 12 12 12 9 9
31 31 29 27 27 26 25 22 21 23 21 18 20 20 18 13 14 15 15 15 12 10 9 11 10 9 8 7 2 2 2 7 6 11 11 10 13 14 13 13 10 8 10
34 36 34 32 31 31 30 29 27 25 24 23 19 21 22 23 20 18 17 17 17 18 17 16 16 14 10 12 9 5 5 2 13 15 12 15 16 16 16 17 16 13 13
27 28 32 37 37 36 34 32 31 29 26 29 31 24 22 24 27 22 21 23 24 24 24 23 21 19 17 14 14 12 9 8 6 11 17 14 14 15 17 17 15 20 20
31 30 35 25 26 29 32 31 27 27 26 24 25 32 28 24 30 33 32 29 27 29 27 27 26 23 21 20 17 17 14 12 10 11 11 12 8 11 17 15 16 18 24
28 28 32 31 25 21 21 20 24 25 25 26 29 33 35 31 35 38 39 36 33 31 32 30 29 26 21 15 18 18 20 20 17 14 13 15 13 10 9 12 13 15 22
27 27 28 28 29 30 28 23 22 24 25 25 28 31 37 36 36 36 38 39 36 33 29 31 32 32 28 25 22 22 19 23 21 19 13 13 15 15 10 9 12 17 20
28 29 30 30 29 31 31 32 28 28 28 28 30 31 30 36 37 38 39 40 40 36 32 30 28 31 32 29 24 23 21 21 22 19 20 19 14 13 13 13 10 14 22
27 31 32 32 30 30 28 31 32 32 35 34 31 29 31 31 35 39 43 40 42 42 37 33 30 29 30 32 29 25 21 24 18 20 22 23 21 17 12 15 16 15 19
26 29 32 33 33 31 31 30 28 32 32 32 36 37 32 33 34 40 39 41 41 43 42 35 32 30 29 33 29 30 26 24 23 18 18 24 25 23 22 12 16 16 20
29 27 33 35 34 34 33 34 27 31 32 36 34 34 38 30 32 37 35 38 36 36 34 31 32 33 28 30 33 31 27 25 22 24 23 21 19 25 25 23 16 16 16
Wind_Direction
115 103 47 19 355 334 311 305 305 310 313 317 314 316 314 312 306 299 307 306 295 295 292 282 285 288 277 274 270 259 242 233 221 257 263 270 276 281 261 264 257 247 235
119 46 359 342 309 301 302 312 318 317 323 320 320 317 318 316 307 293 299 318 306 294 284 286 286 285 275 272 265 253 234 235 232 242 263 268 269 273 267 255 255 248 255
40 354 321 303 302 297 307 317 325 330 330 329 331 334 331 324 320 307 306 295 298 293 291 290 292 283 270 266 261 240 237 239 239 240 257 274 279 273 265 258 255 255 250
343 307 299 306 296 274 308 328 344 348 338 337 335 340 338 331 323 316 313 314 301 294 290 291 290 274 260 258 252 239 240 234 237 240 253 265 269 271 257 255 260 260 261
297 294 294 310 204 299 325 348 355 354 346 346 339 344 354 348 345 337 333 321 317 317 302 308 275 251 244 230 209 201 221 229 228 224 237 248 257 259 245 256 260 266 261
287 300 309 186 239 327 332 350 346 352 348 344 347 340 7 19 0 339 335 324 318 316 319 348 113 146 140 140 144 175 213 229 241 250 261 259 265 250 249 251 224 177 161
299 324 204 207 296 341 342 332 337 347 340 340 352 346 334 343 351 346 336 332 321 317 327 306 132 128 139 130 93 278 271 264 254 259 259 257 276 261 246 237 194 171 146
291 301 204 223 307 330 334 330 330 342 336 334 347 352 338 333 338 337 340 332 334 322 315 183 184 162 147 35 334 338 24 67 187 225 254 269 262 260 218 212 172 148 136
282 287 233 241 286 311 327 312 326 324 327 324 324 332 331 332 338 348 359 357 351 11 152 164 170 159 96 334 309 111 100 94 105 82 62 61 304 192 182 163 148 136 133
276 284 260 242 273 285 318 306 308 315 318 313 312 326 328 320 338 1 30 29 107 111 105 108 118 105 53 22 133 114 101 88 112 112 108 83 73 136 151 165 155 135 133
266 270 257 245 266 291 306 303 298 315 312 303 301 328 340 336 333 56 42 103 128 128 104 94 103 88 81 68 108 113 103 106 126 110 114 87 85 98 148 155 161 149 140
261 256 252 244 263 278 300 298 286 304 295 294 300 328 344 322 2 106 70 97 169 196 189 115 105 98 53 79 114 121 131 142 155 117 95 57 107 97 125 139 151 164 160
256 249 249 244 261 276 294 288 276 287 283 283 305 324 333 273 325 358 164 285 183 198 203 225 182 250 28 82 108 146 191 227 265 298 46 74 90 137 130 131 129 133 136
242 251 246 242 256 265 279 279 275 276 279 267 275 289 306 272 282 303 290 119 149 168 190 199 222 231 263 290 321 320 185 201 213 38 95 109 103 129 126 130 126 129 119
243 248 246 244 250 262 269 270 279 288 272 266 255 259 250 224 240 265 258 221 182 178 187 199 205 219 259 280 281 281 212 207 171 138 130 127 131 144 141 142 146 132 130
241 241 244 245 247 255 258 268 271 281 267 266 255 249 248 236 217 235 238 235 225 225 232 228 231 239 265 297 298 317 205 215 171 159 153 160 159 170 175 162 158 175 160
237 242 244 244 244 248 251 262 265 275 279 262 247 247 246 242 227 223 225 232 234 233 231 228 237 248 257 251 282 240 132 213 179 181 176 181 179 175 180 195 181 165 187
244 247 247 243 242 245 248 255 262 262 269 257 243 245 249 243 236 227 226 228 235 237 231 232 235 245 250 233 238 233 205 193 204 216 194 188 197 196 192 206 212 203 205
350 306 272 247 243 243 246 249 254 257 255 252 259 256 252 250 236 232 231 227 227 232 235 233 235 237 242 247 236 234 224 219 218 217 232 233 219 211 207 219 206 219 214
343 338 333 318 282 258 238 237 241 247 248 248 245 254 260 248 224 226 230 231 229 230 234 235 235 239 247 249 247 245 241 234 228 226 230 227 232 224 230 226 222 217 218
343 341 342 336 323 300 282 268 260 248 243 244 246 250 255 247 226 221 226 230 233 232 230 231 233 230 232 240 239 240 248 236 229 229 239 221 225 238 238 224 233 231 209
343 340 336 331 329 330 316 294 287 271 262 255 254 252 249 238 226 224 225 230 232 230 225 226 228 229 230 235 239 243 243 235 233 221 226 214 211 224 220 218 217 211 209
339 341 338 332 329 328 325 320 320 302 278 271 259 252 246 230 223 224 226 231 228 228 229 227 227 227 227 228 234 232 243 236 229 228 225 215 206 211 223 219 217 204 208
345 342 333 326 323 322 314 315 308 304 302 313 269 258 257 240 231 220 225 228 227 227 226 227 230 229 227 228 230 224 231 228 228 231 237 228 221 211 198 209 218 226 206
345 344 340 331 319 310 309 305 306 306 301 292 292 296 249 249 238 231 217 218 220 221 223 226 224 233 232 226 221 219 223 215 222 229 222 222 228 223 209 191 197 199 206
339 331 337 333 323 312 301 300 295 302 296 296 285 282 291 247 243 229 216 205 207 208 207 214 218 225 228 228 224 219 218 217 219 216 222 224 233 230 223 207 189 186 176